AV - LB | Pilotos de la V.A




 METAR AND TAF INFORMATION
METAR FOR SARC
ADDS - METARS form results

(1308 UTC 13 April 2021)
Data provider http://aviationweather.gov/metar/data/
 
METAR text: SARC 131300Z 18008KT CAVOK 20/15 Q1020
Conditions at: SARC (CORRIENTES AIRPO, AR) observed 1300 UTC 13 April 2021
Temperature: 20.0°C (68°F)
Dewpoint: 15.0°C (59°F) [RH = 73%]
Pressure (altimeter): 30.12 inches Hg (1020.0 mb)
Winds: from the S (180 degrees) at 9 MPH (8 knots; 4.1 m/s)
Visibility: 6 or more miles (10+ km)
Ceiling: ceiling and visibility are OK
Clouds: unknown
Weather: no significant weather observed at this time

 AIRPORT MAP

 RUNWAY INFORMATION
Runway 2 Runway length 6890 ft Runway width 148 ft
Runway elevation 202 ft Runway displaced threshold 0 ft Runway heading 8
Runway 20 Runway length 6890 ft Runway width 148 ft
Runway elevation 199 ft Runway displaced threshold 0 ft Runway heading 188

 AIRPORT FREQUENCIES
Type TWR Name TWR Frequency 118.3 MHZ

 AIRPORT NEAR NAVIGATION AIDS
Type NDB Name Corrientes Frequency 305 KHZ
Type VOR-DME Name Corrientes Frequency 115400 KHZ